Regional Weather Roundup
Issued by NWS

Home | Current Version | Previous Version | Text Only | Print | Product List | Glossary Off
Versions: 1 2 3 4 5 6 7 8 9 10 11 12 13 14 15 16 17 18 19 20 21 22 23 24 25 26 27 28 29 30 31 32 33 34 35 36 37 38 39 40 41 42 43 44 45 46 47 48 49 50

000
ASUS43 KOAX 281402
RWRNE

WEATHER ROUNDUP FOR NEBRASKA
NATIONAL WEATHER SERVICE OMAHA NE
900 AM CDT THU APR 28 2016

NOTES: SATELLITE DATA IS BEING USED TO AUGMENT CLOUD COVER ABOVE
       12000 FEET.
       "FAIR" INDICATES FEW OR NO CLOUDS BELOW 12,000 FEET WITH NO
       SIGNIFICANT WEATHER AND/OR OBSTRUCTIONS TO VISIBILITY.

  * THESE STATIONS DO NOT REPORT WEATHER SUCH AS RAIN...SNOW OR FOG.

NEZ001>004-019>022-054>056-281500-
NEBRASKA PANHANDLE

CITY           SKY/WX    TMP DP  RH WIND       PRES   REMARKS
SCOTTSBLUFF    PTSUNNY   38  28  67 NW9       30.00R WCI  31
ALLIANCE       CLOUDY    32  29  88 N9        29.99R WCI  24
CHADRON        CLOUDY    34  31  88 N7        30.03R WCI  28
KIMBALL        CLOUDY    34  30  85 N9        29.98R WCI  27
SIDNEY         CLOUDY    35  28  75 N16       29.99R WCI  25
$$

NEZ057>060-069>072-079>082-281500-
SOUTHWEST NEBRASKA

CITY           SKY/WX    TMP DP  RH WIND       PRES   REMARKS
NORTH PLATTE   FAIR      39  32  76 N15       29.97S WCI  31
IMPERIAL       CLOUDY    35  30  82 N15       30.00S WCI  25
LEXINGTON      FAIR      41  35  80 N17       29.96R
MCCOOK         FAIR      40  32  73 NW13      30.01R WCI  32
$$

NEZ005>010-023>029-035>040-094-281500-
NORTH CENTRAL NEBRASKA

CITY           SKY/WX    TMP DP  RH WIND       PRES   REMARKS
VALENTINE      CLOUDY    34  33  96 NW12      29.99R WCI  25
AINSWORTH      CLOUDY    35  35  99 NW16G22   29.97R FOG     WCI  25
BROKEN BOW     LGT RAIN  36  34  92 NW14      29.96R WCI  27
ORD            CLOUDY    40  38  93 NW15      29.93R FOG     WCI  32
$$

NEZ041-046>049-061>064-073>077-083>087-281500-
SOUTH CENTRAL NEBRASKA

CITY           SKY/WX    TMP DP  RH WIND       PRES   REMARKS
GRAND ISLAND   CLOUDY    41  40  96 NW17      29.92R
AURORA         CLOUDY    43  42  97 NW21      29.90R
HASTINGS       CLOUDY    42  37  82 NW21      29.92R
HEBRON         CLOUDY    44  40  86 NW10G16   29.94R
HOLDREGE       FAIR      40  35  82 NW12      29.97R WCI  33
KEARNEY *      PTSUNNY   41  34  75 NW16G22   29.95R
YORK           CLOUDY    45  41  87 NW18      29.89R
$$

NEZ011>018-030>034-042>045-281500-
NORTHEAST NEBRASKA

CITY           SKY/WX    TMP DP  RH WIND       PRES   REMARKS
NORFOLK        CLOUDY    43  39  86 NW13      29.89R
ALBION         DRIZZLE   42  40  93 N10       29.90R
BLAIR          CLOUDY    45  43  92 NW9       29.84R
COLUMBUS *     CLOUDY    45  36  70 NW15      29.89R
FREMONT        CLOUDY    45  43  94 NW14      29.86R
TEKAMAH        CLOUDY    46  43  89 NW15      29.85R
$$

NEZ050>053-065>068-078-088>093-281500-
SOUTHEAST NEBRASKA

CITY           SKY/WX    TMP DP  RH WIND       PRES   REMARKS
LINCOLN        CLOUDY    49  41  74 NW15      29.88R
OMAHA EPPLEY   CLOUDY    47  43  86 NW15      29.83R
BEATRICE       CLOUDY    46  42  86 NW15G24   29.89R
FALLS CITY     CLOUDY    50  46  86 W12       29.86R
NEBRASKA CITY  CLOUDY    47  45  94 NW14      29.85R
$$

NEZ044-045-051>053-067-281500-
OMAHA AREA

CITY           SKY/WX    TMP DP  RH WIND       PRES   REMARKS
OMAHA EPPLEY   CLOUDY    47  43  86 NW15      29.83R
BLAIR          CLOUDY    45  43  92 NW9       29.84R
FREMONT        CLOUDY    45  43  94 NW14      29.86R
OFFUTT AFB     CLOUDY    47  45  93 NW12      29.83R
WAHOO          CLOUDY    46  43  88 NW12      29.85R
$$



USA.gov is the U.S. government's official web portal to all federal, state and local government web resources and services.